This is the latest recevied weather packets stored in our database for station/object KD0ISH. If no packets are shown the sender has not sent any weather packets the latest 10 day(s).
| Time | Temp. | Humidity | Pressure | Rain* | Wind** | Luminosity | Snow |
|---|---|---|---|---|---|---|---|
| 1777400057 | 11.11° C | 97% | 1015.3 hPa | 0 mm | - | 130 W/m² | - |
| 1777399755 | 11.11° C | 97% | 1016.3 hPa | 0 mm | - | 41 W/m² | - |
| 1777399451 | 11.11° C | 97% | 1015.5 hPa | 1.27 mm | - | 64 W/m² | - |
| 1777399149 | 10.56° C | 97% | 1015.7 hPa | 1.27 mm | - | 28 W/m² | - |
| 1777398845 | 10.56° C | 96% | 1015.8 hPa | 6.1 mm | - | 8 W/m² | - |
| 1777398543 | 10.56° C | 96% | 1015.5 hPa | 50.29 mm | - | 5 W/m² | - |
| 1777398239 | 11.11° C | 95% | 1014.9 hPa | 56.39 mm | - | 10 W/m² | - |
| 1777397936 | 11.67° C | 94% | 1017.5 hPa | 23.37 mm | - | 7 W/m² | - |
| 1777397631 | 11.67° C | 94% | 1016.2 hPa | 6.6 mm | - | 10 W/m² | - |
| 1777397328 | 12.22° C | 93% | 1016.1 hPa | 3.05 mm | - | 11 W/m² | - |
| 1777397025 | 12.22° C | 91% | 1017.2 hPa | 8.89 mm | - | 3 W/m² | - |
| 1777396722 | 12.78° C | 91% | 1015.9 hPa | 8.89 mm | - | 8 W/m² | - |
| 1777396418 | 13.33° C | 89% | 1018.1 hPa | 1.27 mm | - | 12 W/m² | - |
| 1777396115 | 13.33° C | 87% | 1016.8 hPa | 1.27 mm | - | 6 W/m² | - |
| 1777395811 | 13.33° C | 87% | 1015.8 hPa | 0 mm | - | 35 W/m² | - |
| 1777395506 | 13.33° C | 85% | 1016.9 hPa | 0 mm | - | 64 W/m² | - |
| 1777395203 | 13.33° C | 84% | 1016.7 hPa | 0 mm | - | 28 W/m² | - |
| 1777394901 | 13.89° C | 84% | 1016.3 hPa | 0 mm | - | 15 W/m² | - |
| 1777394597 | 13.89° C | 83% | 1016 hPa | 0 mm | - | 31 W/m² | - |
| 1777394294 | 13.89° C | 81% | 1015.9 hPa | 0 mm | - | 62 W/m² | - |
| 1777393990 | 13.89° C | 81% | 1016 hPa | 0 mm | - | 52 W/m² | - |
| 1777393689 | 13.89° C | 81% | 1016.2 hPa | 0 mm | - | 55 W/m² | - |
| 1777393385 | 13.89° C | 81% | 1016.4 hPa | 0 mm | - | 54 W/m² | - |
| 1777393081 | 14.44° C | 80% | 1016.2 hPa | 0 mm | - | 69 W/m² | - |
| 1777392777 | 14.44° C | 80% | 1016.5 hPa | 0 mm | - | 97 W/m² | - |
* Rain latest hour (hover to see other rain measurements)
** Current wind speed in m/s (hover to see current wind gust speed)